STARLINK-1292, 45394

Orbit data source: Space-Track

STARLINK-1292, 45394 is a payload satellite owned by SpaceX/Seattle (US) in LEO that was launched on Wed, 18 Mar 2020 UTC via an FALCON 9 launch vehicle from the Air Force Eastern Test Range (AFETR). Payload-class satellites include a variety of spacecraft equipped with specific instruments for various scientific and technological missions. These include communications satellites like Starlink; space stations such as the ISS; scientific satellites like the Hubble; Earth observation satellites from companies like Planet Labs, Umbra, and HawkEye 360; GPS; miniature CubeSats for education and research; and military/defense satellites.

Loading next visibility...
Identifier
45394, 2020-019AL
Orbit
LEO
Last TLE update
14 hours ago
Origin
Manufacturer
SpaceX/Seattle
Mission
Operational Commercial Communications
Bus & Motor
STARLINK, Unknown motor
Mass
260 kg wet, ~248 kg dry
Launch date (UTC)
2020-03-18 (5 years ago)
Launch vehicle
FALCON 9
Launch site
Air Force Eastern Test Range (AFETR)
Object type
Payload
Rocket body
Debris
Shape & HBR
Box + 1 Pan, 8.86 m
Radar Cross Section
13.562 m², Large (>1 m²)

Expand to show TLE details & history

TLE from 14 hours ago
0 STARLINK-1292
1 45394U 20019AL  25170.49572695  .00017295  00000-0  11767-2 0  9997
2 45394  53.0538 248.1416 0001848  99.6709 260.4489 15.06412844290074
Epoch: 2025-06-19T11:53Z
TLE epoch observation values (Epoch: 2025-06-19T11:53:50.808Z)
Latitude
-0°
Longitude
161.71731°
Altitude
548.264 km
Speed
7.589 km/s
True Right ascension
16h 32m 33s
True Declination
0° 00' 00"
Sunlit
Object was in full shadow at epoch
Visualization orbit readout
Latitude
-49.47127°
Longitude
98.06511°
Altitude
565.417 km
Speed
7.578 km/s
Apparent Right ascension
04h 28m 24s
Apparent Declination
-85° 31' 40"
Sunlit
Object is in daylight
Visualization observer readout
Local Sidereal Time
12:48:20
Azimuth
184.961° SSW
Elevation
-42.377°
Doppler factor
1
Orbital elements
Apogee altitude
548.723 km
Perigee altitude
546.163 km
Semi-major axis
6,925.58 km
Eccentricity
0.00018
Inclination
53.0538°
RAAN
248.1416°
Arg. of periapsis
99.6709°
True anomaly
Unknown
Mean anomaly
260.4489°
Eccentric anomaly
Unknown
Mean motion
3.76581 °/min
Orbital period
95.6 mins
BSTAR
0.0011767
Loading maneuver chart data...
Loading SW <> Apogee altitude chart data...
Loading historical data...
Loading historical data...
Loading historical data...
Loading historical data...
Loading historical data...
Loading historical data...
Loading historical data...

STARLINK-1292 Visibility forecast

Observer location: undefined°, undefined°

Span
Click to sort rows by Start time (UTC) header in descending order
Start Az.
Max El. time (UTC)
Max El. Az.
Max El.
End time (UTC)
End Az.
6 mins2025-06-20 07:09:39.984Z194.041° SSW2025-06-20 07:12:39.984Z134.565° SE29.979°2025-06-20 07:15:39.984Z71.553° E
6 mins2025-06-20 08:49:39.984Z270.878° WNW2025-06-20 08:52:39.984Z344.421° N29.682°2025-06-20 08:55:39.984Z34.983° NE
6 mins2025-06-20 13:51:39.984Z332.536° NNW2025-06-20 13:53:39.984Z17.021° NNE31.842°2025-06-20 13:57:39.984Z101.242° ESE
5 mins2025-06-20 15:31:39.984Z272.424° WNW2025-06-20 15:33:39.984Z223.033° SW27.022°2025-06-20 15:36:39.984Z169.475° S
|